Location: Namasale
(1.5000°N, 32.6167°E)
Time: 10:07:24
(UTC+00:00)

Vanguard 1 Rocket - Pass Details

Date: 21 April 2021
Orbit: 652 x 4225 km, 34.3° (Epoch: 15 May)

Event Time Altitude Azimuth Distance (km) Brightness Sun altitude
Rises 18:48:20 0° 302° (WNW) 3,906 11.4 -43.3°
Reaches altitude 10° 18:50:28 10° 301° (WNW) 3,209 10.8 -43.8°
Enters shadow 18:56:10 57° 285° (WNW) 1,926 9.0 -45.2°
Maximum altitude 18:58:41 78° 215° (SW) 1,925 - -45.8°
Drops below altitude 10° 19:15:37 10° 131° (SE) 6,148 - -49.7°
Sets 19:21:34 0° 129° (SE) 7,659 - -51.1°
